Location: Saratov
(51.5670°N, 46.0330°E)
Time: 02:41:48
(UTC+03:00)

N. Korean satellite - Visible Passes

Search period start: 19 October 2019 00:00
Search period end: 29 October 2019 00:00
Orbit: 455 x 508 km, 97.2° (Epoch: 18 October)

Date Brightness Start Highest point End Pass type
(mag) Time Alt. Az. Time Alt. Az. Time Alt. Az.
19 Oct 9.7 05:05:01 10° NE 05:07:43 20° E 05:10:25 10° SE visible
20 Oct 10.4 04:41:06 10° ENE 04:42:11 11° E 04:43:14 10° ESE visible
21 Oct 7.4 05:47:10 10° NNE 05:50:43 56° E 05:54:19 10° S visible
21 Oct 10.0 18:02:41 10° SW 18:04:47 15° W 18:06:53 10° NW visible
22 Oct 8.9 05:22:05 10° NNE 05:25:19 30° E 05:28:34 10° SSE visible
22 Oct 9.0 17:36:16 10° SSW 17:39:15 27° W 17:42:18 10° NW visible
23 Oct 9.9 04:57:24 10° NE 04:59:50 17° E 05:02:17 10° SE visible
25 Oct 7.9 05:39:20 10° NNE 05:42:52 46° E 05:46:26 10° S visible
25 Oct 9.8 17:54:21 10° SW 17:56:50 18° W 17:59:21 10° NW visible
26 Oct 9.2 05:14:20 10° NE 05:17:25 25° E 05:20:32 10° SSE visible
26 Oct 8.5 17:28:10 10° SSW 17:31:20 33° W 17:34:34 10° NNW visible
27 Oct 10.1 04:49:50 10° NE 04:51:54 14° E 04:54:00 10° SE visible
28 Oct 6.9 05:56:40 10° NNE 06:00:21 75° ESE 06:04:03 10° S visible
28 Oct 10.2 18:12:57 10° WSW 18:14:26 12° W 18:15:56 10° WNW visible
